, SD

(GMT )
Rapid City

Weather History for KRAP - November, 2012

Change the Weather History Date:

Sunday, November 4, 2012

  Actual Average Record
Temperature  
Mean Temperature 45 °F 40 °F  
Max Temperature 60 °F 53 °F 79 °F (1999)
Min Temperature 30 °F 27 °F 6 °F (2003)
Degree Days  
Heating Degree Days 20 25  
Month to date heating degree days 91 97  
Since 1 July heating degree days 774 859  
Cooling Degree Days 0 0  
Month to date cooling degree days 0 0  
Year to date cooling degree days 937 636  
Moisture  
Dew Point 33 °F    
Average Humidity 70    
Maximum Humidity 100    
Minimum Humidity 40    
Precipitation  
Precipitation 0.05 in 0.02 in 0.40 in (1959)
Month to date precipitation 0.05 0.09  
Year to date precipitation 10.76 15.43  
Snow  
Snow 0.00 in 0.10 in 4.00 in (1973)
Month to date snowfall 0.0 0.7  
Since 1 July snowfall 0.1 2.5  
Since 1 September snowfall 0.1 2.5  
Snow Depth 0.00 in    
Sea Level Pressure  
Sea Level Pressure 30.16 in    
Wind  
Wind Speed 12 mph (NNW)    
Max Wind Speed 36 mph    
Max Gust Speed 49 mph    
Visibility 10 miles    
Events      
T = Trace of Precipitation, MM = Missing Value Source: NWS Daily Summary

Daily Weather History Graph

Daily Weather History Graph

Search for Another Location

Airport or City:

Trip Planner

Search our weather history database for the weather conditions in past years. The results will help you decide how hot, cold, wet, or windy it might be!

Date:

Astronomy

Nov. 04, 2012 Rise Set
Actual Time 6:33 AM MST 4:37 PM MST
Civil Twilight 6:03 AM MST 5:07 PM MST
Nautical Twilight 5:28 AM MST 5:42 PM MST
Astronomical Twilight 4:55 AM MST 6:15 PM MST
Moon 9:16 PM MST (11/4) 11:20 AM MST (11/4)
Length of Visible Light 11h 04m
Length of Day
10h 04m
Waning Gibbous, 71% of the Moon is Illuminated
Nov 4
Waning Gibbous
Nov 6
Last Quarter
Nov 13
New
Nov 20
First Quarter
Nov 28
Full

Hourly Weather History & Observations

Time (MST) Temp. Windchill Dew Point Humidity Pressure Visibility Wind Dir Wind Speed Gust Speed Precip Events Conditions
12:52 AM 32.0 °F 28.7 °F 30.0 °F 92% 30.14 in 10.0 mi ESE 3.5 mph - N/A   Clear
1:52 AM 30.9 °F - 30.0 °F 96% 30.13 in 10.0 mi Calm Calm - N/A   Clear
1:52 AM 30.9 °F - 30.0 °F 96% 30.12 in 10.0 mi Calm Calm - N/A   Clear
2:52 AM 32.0 °F - 30.9 °F 96% 30.10 in 10.0 mi Calm Calm - N/A   Scattered Clouds
3:52 AM 33.1 °F - 30.9 °F 92% 30.10 in 10.0 mi Calm Calm - N/A   Overcast
4:52 AM 33.1 °F - 30.9 °F 92% 30.11 in 10.0 mi Calm Calm - N/A   Mostly Cloudy
5:52 AM 32.0 °F 28.7 °F 30.9 °F 96% 30.10 in 10.0 mi East 3.5 mph - N/A   Scattered Clouds
6:52 AM 32.0 °F - 30.0 °F 92% 30.11 in 10.0 mi Calm Calm - N/A   Clear
7:52 AM 35.1 °F - 33.1 °F 92% 30.12 in 10.0 mi Calm Calm - N/A   Overcast
8:52 AM 36.0 °F 27.1 °F 33.1 °F 89% 30.14 in 10.0 mi North 13.8 mph - N/A   Mostly Cloudy
9:52 AM 41.0 °F 33.5 °F 33.1 °F 73% 30.16 in 10.0 mi North 13.8 mph - N/A   Overcast
10:52 AM 53.1 °F - 36.0 °F 52% 30.14 in 10.0 mi NNW 16.1 mph - N/A   Mostly Cloudy
11:52 AM 59.0 °F - 37.0 °F 44% 30.09 in 10.0 mi NW 23.0 mph 33.4 mph N/A   Partly Cloudy
12:52 PM 59.0 °F - 36.0 °F 42% 30.09 in 10.0 mi NW 27.6 mph 34.5 mph N/A   Partly Cloudy
1:52 PM 57.9 °F - 35.1 °F 42% 30.09 in 10.0 mi NW 25.3 mph 35.7 mph N/A   Clear
2:52 PM 59.0 °F - 35.1 °F 41% 30.10 in 10.0 mi NW 25.3 mph 36.8 mph N/A   Clear
3:52 PM 55.9 °F - 33.1 °F 42% 30.13 in 10.0 mi NW 28.8 mph 38.0 mph N/A   Scattered Clouds
4:52 PM 54.0 °F - 34.0 °F 47% 30.17 in 10.0 mi NW 23.0 mph 33.4 mph N/A   Scattered Clouds
5:52 PM 42.1 °F 36.6 °F 37.0 °F 82% 30.23 in 10.0 mi WNW 9.2 mph - 0.05 in   Clear
6:52 PM 42.1 °F 35.7 °F 36.0 °F 79% 30.25 in 10.0 mi NNW 11.5 mph - N/A   Clear
7:52 PM 39.0 °F 32.8 °F 32.0 °F 76% 30.26 in 10.0 mi NNW 9.2 mph - N/A   Clear
8:52 PM 42.1 °F 34.5 °F 32.0 °F 67% 30.28 in 10.0 mi NNW 15.0 mph - N/A   Clear
9:52 PM 39.9 °F 32.9 °F 30.9 °F 70% 30.27 in 10.0 mi North 11.5 mph - N/A   Clear
10:52 PM 37.0 °F 29.3 °F 30.0 °F 76% 30.26 in 10.0 mi North 11.5 mph - N/A   Clear